XW-3 (CAS-9) (50466 NORAD) Tracking and Keplerian Element Data

This shows tracking and keplerian element data for the satellite.

Feedback or suggestion? Click here.




ElementValue
Catalog50466
NameXW-3 (CAS-9)
Epoch Orbit14693
Epoch Day286.8461964
Epoch Year2024
RAAN11.366
Inclination98.5234
Eccentricity0.0005103
Argument of Perigee128.528
Mean Anonmoly231.6366
Mean Motion14.40091419
Decay Rate3.271E-05
L11 50466U 21131B 24286.84619640 .00003271 00000+0 10501-2 0 9990
L22 50466 98.5234 11.3660 0005103 128.5280 231.6366 14.40091419146939



Live tracking and technical data element details for XW-3 (CAS-9) (NORAD 50466). XW-3 (CAS-9) can be tracked NOW for your location showing map with azimuth and elevation plus other details from your city location.







IsCatalogInMostPopularTable: catalog: 50466, numindb: 112
Update: records affected: 1



GetName: 50466 XW-3 (CAS-9)

Hit Count: updated at: Thu, 23 Jan 2025 17:31:44 GMT